Staunton, VA

9:16 AM EDT on April 27, 2017 (GMT -0400)
Shenandoah Valley Regional

Weather History for KSHD - January, 2014

Change the Weather History Date:

Wednesday, January 29, 2014

  Actual Average Record
Temperature  
Mean Temperature 12 °F -  
Max Temperature 24 °F 43 °F 75 °F (2002)
Min Temperature 1 °F 24 °F 1 °F (2014)
Degree Days  
Heating Degree Days 52    
Moisture  
Dew Point -1 °F    
Average Humidity 56    
Maximum Humidity 86    
Minimum Humidity 28    
Precipitation  
Precipitation 0.00 in - - ()
Sea Level Pressure  
Sea Level Pressure 30.22 in    
Wind  
Wind Speed 2 mph (SSW)    
Max Wind Speed 9 mph    
Max Gust Speed -    
Visibility 10 miles    
Events      
Averages and records for this station are not official NWS values.
T = Trace of Precipitation, MM = Missing Value Source: NWS Daily Summary

Daily Weather History Graph

Daily Weather History Graph

Search for Another Location

Airport or City:

Trip Planner

Search our weather history database for the weather conditions in past years. The results will help you decide how hot, cold, wet, or windy it might be!

Date:

Astronomy

Jan. 29, 2014 Rise Set
Actual Time 7:23 AM EST 5:34 PM EST
Civil Twilight 6:55 AM EST 6:02 PM EST
Nautical Twilight 6:23 AM EST 6:34 PM EST
Astronomical Twilight 5:52 AM EST 7:05 PM EST
Moon 5:58 AM EST (1/29) 4:32 PM EST (1/29)
Length of Visible Light 11h 07m
Length of Day
10h 11m
Waning Crescent, 2% of the Moon is Illuminated
Jan 29
Waning Crescent
Jan 30
New
Feb 6
First Quarter
Feb 14
Full
Feb 22
Last Quarter

Hourly Weather History & Observations

Time (EST) Temp. Windchill Dew Point Humidity Pressure Visibility Wind Dir Wind Speed Gust Speed Precip Events Conditions
12:15 AM 13.1 °F 5.4 °F 7.7 °F 79% 30.19 in 10.0 mi North 4.6 mph - N/A   Overcast
12:35 AM 12.9 °F 6.9 °F 7.5 °F 79% 30.18 in 10.0 mi NNE 3.5 mph - N/A   Overcast
12:55 AM 12.9 °F 5.2 °F 7.7 °F 80% 30.17 in 10.0 mi NNE 4.6 mph - N/A   Overcast
1:15 AM 12.9 °F 3.8 °F 7.7 °F 80% 30.17 in 10.0 mi NNE 5.8 mph - N/A   Overcast
1:35 AM 12.6 °F 6.5 °F 6.6 °F 77% 30.16 in 10.0 mi NNE 3.5 mph - N/A   Overcast
1:55 AM 11.8 °F - 5.9 °F 77% 30.16 in 10.0 mi Calm Calm - N/A   Overcast
2:15 AM 11.8 °F 5.7 °F 5.9 °F 77% 30.16 in 10.0 mi NNE 3.5 mph - N/A   Overcast
2:35 AM 10.4 °F - 5.7 °F 81% 30.16 in 10.0 mi Calm Calm - N/A   Scattered Clouds
2:55 AM 10.9 °F - 6.6 °F 83% 30.16 in 10.0 mi Calm Calm - N/A   Clear
3:15 AM 10.6 °F - 6.6 °F 84% 30.15 in 10.0 mi Calm Calm - N/A   Clear
3:35 AM 10.9 °F - 6.6 °F 83% 30.15 in 10.0 mi Calm Calm - N/A   Mostly Cloudy
3:55 AM 9.5 °F - 5.5 °F 84% 30.16 in 10.0 mi Calm Calm - N/A   Scattered Clouds
4:15 AM 9.5 °F - 5.9 °F 85% 30.15 in 10.0 mi Calm Calm - N/A   Clear
4:35 AM 8.6 °F - 5.0 °F 85% 30.16 in 10.0 mi Calm Calm - N/A   Clear
4:55 AM 9.7 °F - 5.4 °F 83% 30.16 in 10.0 mi Calm Calm - N/A   Clear
5:15 AM 8.2 °F - 4.1 °F 83% 30.16 in 10.0 mi Calm Calm - N/A   Clear
5:35 AM 8.6 °F 2.0 °F 4.8 °F 85% 30.16 in 10.0 mi NW 3.5 mph - N/A   Clear
5:55 AM 7.3 °F - 3.2 °F 83% 30.17 in 10.0 mi Calm Calm - N/A   Clear
6:15 AM 5.9 °F - 2.3 °F 85% 30.19 in 10.0 mi Calm Calm - N/A   Clear
6:35 AM 4.6 °F - 1.2 °F 86% 30.19 in 10.0 mi Calm Calm - N/A   Clear
6:55 AM 3.9 °F - 0.5 °F 86% 30.20 in 10.0 mi Calm Calm - N/A   Clear
7:15 AM 2.7 °F - -1.1 °F 84% 30.21 in 7.0 mi Calm Calm - N/A   Clear
7:35 AM 2.1 °F - -2.0 °F 83% 30.21 in 10.0 mi Calm Calm - N/A   Clear
7:55 AM 1.2 °F - -3.1 °F 82% 30.22 in 10.0 mi Calm Calm - N/A   Clear
8:15 AM 1.0 °F - -2.9 °F 83% 30.23 in 10.0 mi Calm Calm - N/A   Clear
8:35 AM 5.9 °F - 1.9 °F 84% 30.23 in 10.0 mi Calm Calm - N/A   Clear
8:55 AM 9.5 °F - 2.3 °F 73% 30.24 in 10.0 mi Calm Calm - N/A   Clear
9:15 AM 10.9 °F 4.7 °F -4.0 °F 51% 30.24 in 10.0 mi East 3.5 mph - N/A   Clear
9:35 AM 11.8 °F - -5.3 °F 46% 30.25 in 10.0 mi Calm Calm - N/A   Clear
9:55 AM 12.4 °F - -6.5 °F 43% 30.25 in 10.0 mi Calm Calm - N/A   Clear
10:15 AM 13.6 °F - -6.9 °F 40% 30.25 in 10.0 mi Calm Calm - N/A   Clear
10:35 AM 14.2 °F 8.4 °F -6.0 °F 41% 30.25 in 10.0 mi SW 3.5 mph - N/A   Clear
10:55 AM 14.5 °F - -5.6 °F 41% 30.26 in 10.0 mi Calm Calm - N/A   Clear
11:15 AM 15.8 °F 10.2 °F -5.3 °F 39% 30.26 in 10.0 mi SSW 3.5 mph - N/A   Clear
11:35 AM 16.5 °F - -7.8 °F 34% 30.25 in 10.0 mi Calm Calm - N/A   Clear
11:55 AM 17.6 °F 10.7 °F -5.4 °F 36% 30.25 in 10.0 mi West 4.6 mph - N/A   Clear
12:15 PM 18.7 °F - -8.0 °F 31% 30.24 in 10.0 mi Calm Calm - N/A   Clear
12:35 PM 19.0 °F 10.0 °F -5.3 °F 34% 30.24 in 10.0 mi SW 6.9 mph - N/A   Clear
12:55 PM 19.4 °F 12.8 °F -6.0 °F 32% 30.23 in 10.0 mi West 4.6 mph - N/A   Clear
1:15 PM 20.3 °F 9.8 °F -4.0 °F 34% 30.21 in 10.0 mi SSW 9.2 mph - N/A   Clear
1:35 PM 20.7 °F 11.0 °F -3.1 °F 35% 30.21 in 10.0 mi SW 8.1 mph - N/A   Clear
1:55 PM 20.7 °F 11.9 °F -4.4 °F 33% 30.21 in 10.0 mi SW 6.9 mph - N/A   Clear
2:15 PM 21.2 °F 13.6 °F -5.1 °F 31% 30.21 in 10.0 mi South 5.8 mph - N/A   Clear
2:35 PM 22.1 °F 15.9 °F -3.6 °F 32% 30.20 in 10.0 mi SW 4.6 mph - N/A   Clear
2:55 PM 21.9 °F 14.5 °F -5.6 °F 30% 30.20 in 10.0 mi South 5.8 mph - N/A   Clear
3:15 PM 22.5 °F 17.8 °F -5.8 °F 29% 30.19 in 10.0 mi South 3.5 mph - N/A   Clear
3:35 PM 23.5 °F 14.5 °F -3.6 °F 30% 30.19 in 10.0 mi South 8.1 mph - N/A   Clear
3:55 PM 23.7 °F - -5.3 °F 28% 30.19 in 10.0 mi Calm Calm - N/A   Clear
4:15 PM 24.4 °F 20.1 °F -4.4 °F 28% 30.20 in 10.0 mi SSW 3.5 mph - N/A   Clear
4:35 PM 24.1 °F 18.2 °F -3.3 °F 30% 30.20 in 10.0 mi SE 4.6 mph - N/A   Clear
4:55 PM 23.7 °F 17.8 °F -3.1 °F 31% 30.21 in 10.0 mi SSE 4.6 mph - N/A   Clear
5:15 PM 22.8 °F 18.2 °F -1.7 °F 34% 30.21 in 10.0 mi South 3.5 mph - N/A   Clear
5:35 PM 22.1 °F 14.7 °F -2.4 °F 34% 30.21 in 10.0 mi South 5.8 mph - N/A   Clear
5:55 PM 20.8 °F 16.0 °F -2.2 °F 36% 30.22 in 10.0 mi South 3.5 mph - N/A   Clear
6:15 PM 19.4 °F - -0.9 °F 41% 30.22 in 10.0 mi Calm Calm - N/A   Clear
6:35 PM 19.2 °F - -0.6 °F 42% 30.23 in 10.0 mi Calm Calm - N/A   Clear
6:55 PM 18.9 °F 9.8 °F 0.1 °F 44% 30.24 in 10.0 mi South 6.9 mph - N/A   Clear
7:15 PM 18.1 °F 10.0 °F -1.1 °F 43% 30.25 in 10.0 mi SW 5.8 mph - N/A   Clear
7:35 PM 17.6 °F 10.7 °F -0.9 °F 44% 30.26 in 10.0 mi SW 4.6 mph - N/A   Clear
7:55 PM 17.1 °F - -1.3 °F 45% 30.26 in 10.0 mi Calm Calm - N/A   Clear
8:15 PM 18.3 °F - -2.7 °F 40% 30.26 in 10.0 mi Calm Calm - N/A   Clear
8:35 PM 16.2 °F - -1.1 °F 47% 30.26 in 10.0 mi Calm Calm - N/A   Clear
8:55 PM 14.2 °F - -1.1 °F 51% 30.25 in 10.0 mi Calm Calm - N/A   Clear
9:15 PM 15.3 °F - -1.5 °F 48% 30.26 in 10.0 mi Calm Calm - N/A   Clear
9:35 PM 14.9 °F 7.5 °F -1.3 °F 49% 30.26 in 10.0 mi SSW 4.6 mph - N/A   Clear
9:55 PM 10.9 °F - 0.3 °F 62% 30.27 in 10.0 mi Calm Calm - N/A   Clear
10:15 PM 15.6 °F - -2.2 °F 45% 30.28 in 10.0 mi Calm Calm - N/A   Clear
10:35 PM 12.6 °F - -1.3 °F 54% 30.28 in 10.0 mi Calm Calm - N/A   Clear
10:55 PM 11.7 °F - -1.1 °F 57% 30.28 in 10.0 mi Calm Calm - N/A   Clear
11:15 PM 10.9 °F 4.7 °F -1.5 °F 57% 30.28 in 10.0 mi SSE 3.5 mph - N/A   Clear
11:35 PM 10.0 °F - -1.1 °F 61% 30.29 in 10.0 mi Calm Calm - N/A   Clear
11:55 PM 11.8 °F - -2.2 °F 53% 30.30 in 10.0 mi Calm Calm - N/A   Clear